Temperature
16 16 16 16 16 17 17 17 17 17 17 17 17 17 17 17 17 16 16 16 16 16 16 15 15 15 15 15 15 15 15 15 15 15 14 14 14 14
16 16 16 16 16 16 16 16 16 16 16 17 17 17 17 17 17 16 16 16 16 16 16 15 15 15 15 15 15 15 15 15 15 15 14 14 14 14
16 16 16 16 16 16 16 16 16 16 16 16 16 17 17 17 17 16 16 16 16 16 16 15 15 15 15 15 15 15 15 15 15 15 14 14 14 14
16 16 16 16 16 16 16 16 16 16 16 16 16 16 16 16 16 16 16 16 16 16 15 15 15 15 15 15 15 15 15 15 15 14 14 14 14 14
15 15 15 15 15 15 15 15 15 15 15 15 16 16 16 16 15 16 15 15 15 15 15 15 15 15 15 15 15 15 15 15 14 14 14 14 14 14
15 15 15 15 15 15 15 15 15 15 15 15 15 15 15 15 15 15 15 15 15 15 15 15 15 15 15 15 15 15 15 15 14 14 14 14 14 14
15 15 15 15 15 15 15 15 14 14 14 14 14 14 14 14 14 14 14 14 14 14 14 14 14 14 14 14 14 14 14 14 14 14 14 14 14 14
15 14 14 14 14 14 14 14 14 14 14 14 14 13 13 13 13 13 13 13 13 14 13 14 14 14 14 14 14 14 14 14 14 14 14 14 14 13
14 14 14 14 14 13 13 13 13 13 13 12 12 12 12 12 12 12 12 12 12 12 12 12 13 12 13 13 13 13 13 13 13 13 13 13 13 13
13 13 13 13 13 12 12 12 12 12 12 11 11 11 11 11 11 11 11 11 11 11 11 11 11 11 12 12 12 12 12 12 12 12 12 12 12 12
12 12 12 11 11 11 11 11 11 11 11 10 10 10 10 10 10 10 10 10 10 10 10 10 10 10 10 11 11 11 11 11 11 11 11 11 11 11
11 11 11 10 10 10 10 10 10 10 10 9 9 9 9 9 9 9 9 8 8 8 8 8 8 8 8 9 9 9 10 10 10 10 10 10 10 10
10 10 10 9 9 9 9 9 8 8 8 8 8 8 8 8 8 8 7 7 7 7 7 7 7 7 7 7 8 8 8 8 9 9 9 9 9 9
9 9 9 8 8 8 8 7 7 7 7 7 7 7 7 7 7 6 6 6 6 6 6 6 6 6 6 6 6 7 7 7 7 7 8 8 8 8
8 8 8 7 7 7 7 7 7 7 6 6 6 6 6 6 6 6 6 6 6 5 5 5 5 5 5 5 5 5 6 6 6 6 6 7 7 7
8 7 7 7 7 6 6 6 6 5 5 5 5 5 5 5 5 4 4 5 5 5 5 5 4 4 4 4 4 4 5 5 5 5 5 6 6 6
7 7 6 6 6 6 5 5 5 4 4 4 4 3 3 3 3 3 3 3 3 3 3 3 3 3 3 3 4 4 4 4 4 4 5 5 6 6
6 6 5 5 5 5 4 4 4 3 3 3 3 2 2 2 2 2 2 2 2 2 2 2 2 2 3 3 3 3 3 3 3 4 4 4 5 5
5 5 4 4 4 4 3 3 3 2 2 2 2 2 2 1 1 1 1 1 1 1 1 1 1 1 1 1 2 2 2 3 3 3 3 3 4 5
4 4 4 3 3 3 2 2 2 2 2 1 1 1 1 1 1 1 1 0 0 1 1 1 1 1 1 1 1 2 2 2 2 2 3 3 3 4
4 3 3 3 2 2 2 2 1 1 1 1 1 1 1 1 0 0 0 0 0 0 0 1 1 1 1 1 1 2 2 2 2 2 2 3 3 4
3 3 2 2 2 2 1 1 1 1 1 1 1 0 0 0 0 0 0 -0 0 0 0 1 1 1 1 1 1 1 2 2 3 3 3 3 2 3
2 2 2 2 1 1 1 1 1 0 0 0 0 0 0 0 -0 -0 0 0 0 0 0 0 1 1 1 1 1 1 1 2 2 2 3 3 3 3
Wind_Speed
2 2 2 1 0 1 2 3 4 2 3 4 3 4 8 12 16 17 18 20 21 21 20 20 19 19 18 18 17 17 16 16 16 15 15 14 14 14
3 2 1 1 0 1 1 1 3 4 3 4 4 3 4 7 13 15 18 19 21 21 22 22 22 22 21 21 20 20 19 18 18 18 17 16 16 15
2 2 3 2 1 1 0 1 1 3 3 4 3 2 2 3 3 9 13 13 15 20 23 24 24 24 24 24 23 23 22 21 21 20 20 19 18 18
4 3 3 2 2 2 1 1 1 2 3 3 3 2 2 3 3 4 7 10 12 16 21 23 25 25 25 25 24 24 23 23 22 22 21 21 20 20
3 3 3 2 2 2 2 2 2 1 2 2 3 2 2 2 2 3 3 4 7 11 14 17 19 20 21 22 22 23 22 22 22 23 23 22 22 21
2 2 1 2 2 2 2 2 2 1 1 1 2 2 2 2 1 2 3 3 4 5 6 7 8 11 14 16 18 19 20 21 22 23 23 23 23 23
2 1 1 2 1 0 0 1 1 1 1 1 2 2 2 2 2 2 3 4 4 2 3 4 4 5 8 11 13 14 15 17 18 20 21 22 23 23
2 2 4 6 6 5 5 4 3 1 1 1 2 2 3 2 2 2 2 2 4 2 2 5 3 4 4 7 10 11 12 14 15 16 17 18 20 22
5 4 5 6 7 5 6 8 7 8 4 1 2 2 2 3 3 3 3 3 4 4 2 4 3 4 5 9 11 9 10 12 13 13 14 15 17 19
6 6 6 6 7 6 5 6 6 7 6 4 2 2 3 3 2 2 3 4 4 4 1 3 3 4 5 7 8 8 10 12 12 12 13 13 14 15
7 7 7 6 9 9 7 6 7 6 9 11 9 7 7 7 4 2 3 3 3 4 2 2 3 4 4 4 6 10 13 12 12 12 13 13 13 12
5 6 9 8 9 9 6 6 6 6 7 8 8 10 10 11 10 4 2 2 2 3 3 3 3 3 4 4 4 8 10 12 13 13 14 14 13 7
5 4 5 9 10 10 7 5 5 4 4 5 6 6 6 6 7 8 5 2 2 3 4 3 3 3 3 4 4 4 5 7 10 11 14 14 13 7
4 3 4 8 10 10 8 8 10 7 5 5 6 6 6 6 6 6 8 7 4 4 6 4 2 3 4 5 5 4 5 7 6 6 8 11 12 12
4 6 8 10 10 9 11 12 9 6 6 6 5 5 4 4 4 5 6 8 8 8 9 7 4 4 4 5 5 5 6 6 5 5 5 6 5 5
6 8 10 11 10 9 9 8 6 5 5 4 4 4 5 5 5 5 5 5 5 5 8 12 9 6 5 6 6 7 6 5 5 7 6 6 6 7
6 7 7 7 7 7 6 6 6 6 6 5 4 5 5 5 5 5 4 4 4 5 7 7 10 10 7 7 7 7 7 6 6 7 6 7 7 6
9 7 6 6 6 5 5 5 5 5 5 4 4 5 5 5 5 5 5 4 5 6 6 6 7 7 6 5 6 6 6 7 7 8 6 7 9 7
9 6 5 4 4 4 4 4 4 4 4 4 4 5 5 5 5 6 6 6 6 6 7 7 6 6 9 10 6 7 8 9 8 8 7 7 8 9
5 4 4 3 3 4 4 4 4 4 4 5 5 5 5 5 6 7 7 7 7 8 8 7 7 6 8 9 9 10 13 9 7 8 9 8 8 10
4 3 3 3 3 3 4 4 4 4 4 5 5 6 6 6 7 7 8 10 9 8 9 9 9 12 8 6 8 8 7 11 12 10 9 9 9 7
3 3 2 3 3 3 3 3 4 4 5 5 5 6 6 6 7 9 8 9 8 9 10 10 10 9 6 8 10 10 10 11 12 15 14 12 7 5
2 2 2 2 2 2 2 3 3 3 4 5 6 6 7 7 7 7 8 9 9 10 10 10 9 7 7 8 9 10 11 11 9 9 9 12 14 16
Wind_Direction
178 187 194 216 170 175 169 163 156 201 272 274 270 249 227 223 222 217 218 222 223 225 228 231 233 235 237 238 239 241 243 245 247 249 251 254 255 257
195 193 217 223 259 79 137 167 166 174 226 264 258 268 243 232 227 218 221 226 227 230 233 236 239 240 242 243 243 244 245 246 247 249 250 252 253 255
224 213 241 238 251 276 259 112 147 166 213 270 271 286 266 248 229 227 231 231 235 238 240 243 245 245 246 246 247 247 247 248 249 250 251 252 252 253
229 224 249 245 249 254 238 239 220 193 193 255 289 306 284 256 248 240 239 238 239 246 247 249 251 252 252 251 250 250 250 251 252 252 252 253 252 253
207 210 235 229 253 260 248 247 251 234 190 213 266 284 291 297 290 277 266 267 265 262 260 258 259 260 260 259 256 255 254 255 255 255 254 253 252 252
173 176 200 197 232 249 252 259 260 276 263 246 270 286 289 303 322 289 294 289 286 288 288 284 282 279 274 269 266 263 262 260 259 258 257 255 254 252
108 83 65 69 64 152 260 265 252 260 297 293 286 304 310 328 312 298 285 294 289 287 300 299 304 302 298 287 279 276 273 271 268 265 262 259 256 254
89 63 55 42 33 38 40 44 54 44 313 286 282 284 286 293 300 306 309 323 302 312 324 298 295 291 300 301 297 293 289 287 283 278 272 265 261 258
72 62 52 39 34 31 40 42 35 30 25 310 294 295 301 305 313 313 302 278 270 286 308 288 299 297 306 305 304 306 310 307 300 293 287 280 272 263
68 70 67 42 31 35 46 39 28 20 15 15 334 308 315 309 288 280 280 293 288 293 308 279 302 296 300 301 307 325 331 324 318 314 308 299 289 278
64 60 59 49 32 42 51 43 30 15 20 24 26 20 11 2 357 8 359 355 320 310 340 313 305 309 302 298 330 344 339 332 326 320 316 312 303 292
58 49 49 47 39 46 53 47 32 2 360 11 17 17 16 17 18 23 0 345 320 307 335 339 312 332 316 304 318 331 330 326 325 317 313 309 307 300
60 39 25 30 37 44 52 51 26 10 12 20 19 16 15 17 18 19 16 8 336 297 319 336 314 315 284 297 306 306 317 319 317 309 306 304 303 289
59 29 21 35 45 47 49 38 36 39 35 33 30 22 15 6 358 1 6 6 346 300 320 341 310 299 295 293 290 299 308 305 302 298 304 309 307 299
47 42 53 55 51 48 45 46 44 44 42 38 26 8 351 343 345 350 356 355 348 350 356 352 331 309 292 284 286 291 303 301 298 304 305 304 297 298
44 48 56 57 56 49 45 43 41 42 44 36 12 354 351 357 359 355 349 347 344 332 334 342 336 320 304 292 290 295 294 292 305 307 304 299 296 294
62 58 53 48 47 42 37 34 30 29 28 17 14 5 360 359 350 345 344 346 340 324 322 323 325 316 288 285 293 294 296 294 293 300 303 301 294 289
76 66 57 52 49 44 37 25 20 18 11 11 10 4 357 352 343 338 339 334 323 314 311 311 320 322 323 303 263 286 297 294 294 296 291 292 292 290
75 70 63 54 45 37 30 24 11 2 5 11 5 354 347 342 336 330 328 324 316 310 307 309 314 317 319 316 293 280 290 296 295 295 289 282 285 288
72 76 67 55 46 35 25 20 14 10 11 7 359 349 343 337 331 326 322 320 317 313 311 311 309 308 304 301 296 293 290 282 288 292 294 290 280 276
59 61 63 62 50 40 31 28 24 14 3 355 347 340 334 331 326 321 318 317 316 313 313 310 302 303 298 293 295 294 290 286 283 284 290 293 295 294
65 62 61 70 62 46 36 31 21 6 353 345 333 328 324 321 317 316 315 314 312 310 307 304 305 308 307 305 304 303 303 306 304 297 283 271 274 283
75 74 72 72 60 51 43 32 16 347 334 326 321 317 316 315 312 310 310 310 310 311 312 311 311 309 305 301 302 304 304 309 311 314 310 305 295 281
Height
1552 1554 1555 1556 1556 1557 1557 1557 1557 1556 1556 1556 1556 1556 1556 1557 1557 1557 1558 1558 1558 1557 1557 1556 1556 1555 1555 1554 1554 1554 1553 1553 1553 1553 1552 1552 1552 1552
1550 1551 1552 1553 1554 1554 1555 1555 1555 1555 1554 1554 1554 1554 1554 1554 1554 1554 1555 1555 1555 1554 1554 1553 1553 1552 1552 1551 1551 1550 1550 1549 1549 1548 1548 1548 1548 1548
1548 1549 1550 1551 1551 1552 1552 1552 1552 1552 1551 1551 1551 1551 1551 1550 1551 1551 1551 1551 1551 1551 1550 1550 1549 1548 1548 1547 1547 1546 1545 1545 1544 1544 1544 1543 1543 1543
1546 1546 1547 1548 1548 1549 1549 1549 1549 1549 1549 1548 1548 1548 1548 1547 1547 1547 1547 1547 1547 1547 1546 1545 1545 1544 1544 1543 1542 1541 1541 1540 1539 1539 1538 1538 1538 1537
1543 1544 1544 1544 1545 1545 1546 1546 1546 1546 1546 1545 1544 1544 1544 1544 1543 1543 1543 1542 1542 1542 1541 1540 1540 1539 1538 1538 1537 1536 1535 1535 1534 1533 1533 1532 1532 1531
1540 1541 1541 1541 1542 1542 1542 1542 1542 1542 1542 1541 1541 1540 1540 1539 1539 1538 1537 1537 1537 1536 1535 1535 1534 1533 1532 1532 1531 1530 1529 1529 1528 1527 1527 1526 1526 1525
1537 1538 1538 1538 1538 1538 1538 1538 1538 1538 1538 1537 1536 1536 1535 1535 1534 1533 1532 1531 1530 1530 1529 1528 1528 1527 1526 1525 1524 1523 1523 1522 1521 1520 1520 1519 1519 1519
1534 1535 1535 1535 1535 1535 1534 1534 1534 1534 1533 1533 1532 1531 1531 1530 1529 1528 1527 1526 1524 1525 1523 1522 1521 1520 1519 1518 1518 1516 1515 1515 1514 1513 1512 1512 1511 1511
1532 1532 1532 1532 1532 1532 1531 1531 1531 1530 1530 1529 1528 1527 1526 1525 1524 1523 1522 1521 1519 1518 1517 1514 1514 1513 1512 1511 1511 1510 1509 1507 1506 1506 1505 1504 1503 1503
1529 1529 1529 1529 1529 1529 1528 1528 1527 1527 1526 1525 1525 1523 1522 1521 1520 1519 1517 1516 1515 1514 1512 1509 1508 1506 1506 1505 1504 1503 1502 1500 1499 1498 1497 1496 1496 1495
1527 1527 1527 1527 1527 1526 1526 1525 1525 1524 1523 1522 1521 1520 1519 1518 1516 1515 1513 1511 1509 1509 1507 1505 1502 1500 1499 1498 1497 1496 1495 1493 1492 1491 1490 1489 1488 1487
1526 1526 1526 1526 1525 1525 1524 1523 1522 1521 1520 1519 1518 1517 1516 1514 1513 1511 1510 1508 1506 1505 1503 1501 1498 1495 1493 1492 1491 1490 1488 1486 1485 1484 1482 1481 1480 1478
1525 1525 1525 1525 1524 1524 1523 1522 1521 1520 1519 1518 1516 1515 1514 1512 1511 1509 1507 1506 1504 1502 1500 1497 1495 1492 1490 1486 1484 1483 1482 1479 1477 1476 1475 1474 1472 1471
1525 1525 1525 1525 1524 1523 1523 1522 1521 1520 1518 1517 1515 1513 1512 1510 1509 1507 1506 1504 1502 1499 1497 1494 1491 1488 1485 1481 1478 1476 1475 1473 1471 1469 1468 1466 1464 1463
1525 1526 1525 1525 1524 1523 1523 1522 1520 1519 1517 1515 1514 1512 1510 1508 1506 1504 1502 1500 1498 1496 1493 1490 1487 1484 1481 1478 1474 1471 1468 1466 1465 1463 1460 1459 1457 1456
1526 1526 1526 1526 1525 1524 1523 1521 1520 1518 1516 1515 1513 1511 1508 1506 1503 1500 1498 1495 1492 1490 1488 1486 1482 1479 1476 1473 1469 1466 1464 1461 1458 1457 1454 1452 1451 1449
1527 1527 1527 1526 1525 1524 1522 1521 1519 1518 1516 1513 1511 1508 1506 1503 1500 1498 1495 1491 1488 1485 1481 1479 1477 1474 1471 1467 1464 1461 1458 1455 1453 1450 1447 1444 1442 1442
1528 1527 1526 1526 1525 1523 1522 1520 1518 1516 1514 1512 1509 1507 1504 1500 1498 1495 1492 1489 1485 1482 1478 1475 1471 1467 1464 1462 1460 1455 1452 1449 1446 1443 1441 1437 1434 1433
1528 1527 1527 1526 1525 1523 1522 1520 1518 1516 1513 1510 1508 1505 1502 1498 1495 1492 1489 1485 1482 1479 1475 1472 1468 1464 1459 1455 1452 1452 1447 1443 1439 1436 1434 1431 1427 1425
1529 1528 1527 1526 1525 1523 1521 1519 1517 1515 1512 1509 1506 1503 1499 1496 1493 1489 1486 1483 1479 1475 1472 1469 1465 1461 1458 1453 1447 1444 1443 1439 1434 1431 1427 1424 1421 1419
1530 1529 1528 1527 1525 1523 1521 1519 1516 1514 1511 1508 1504 1501 1497 1494 1490 1487 1483 1480 1477 1473 1469 1465 1462 1458 1454 1449 1445 1439 1437 1434 1431 1427 1422 1419 1415 1412
1530 1529 1528 1526 1525 1523 1521 1518 1515 1512 1509 1506 1502 1498 1495 1491 1488 1484 1481 1477 1474 1470 1466 1462 1458 1454 1450 1446 1441 1436 1432 1428 1426 1422 1419 1415 1412 1407
1530 1529 1528 1526 1524 1522 1520 1517 1514 1511 1507 1504 1500 1496 1492 1489 1485 1482 1478 1475 1471 1467 1463 1459 1455 1451 1447 1443 1438 1433 1429 1425 1421 1417 1414 1411 1408 1405